EW1296 Weather Reports


time (UTC)temp
C
wind
direction
speed
KPH
gust
KPH
rain 1hr
cm
rain 24hr
cm
rain mn
cm
humidity
%
barometer
mb
20260902123018 19 90 4.8 12.9 0.00 0.94 0.00 92 1019.9
20260902122517 19 68 6.4 14.5 0.00 0.94 0.00 92 1019.8
20260902122017 19 68 4.8 12.9 0.00 0.94 0.00 93 1019.9
20260902121518 19 113 4.8 14.5 0.00 0.94 0.00 93 1020.1
20260902121017 19 113 3.2 11.3 0.00 0.94 0.00 93 1020.0
20260902120517 19 68 4.8 12.9 0.00 0.94 0.00 93 1019.9
20260902120017 19 68 4.8 14.5 0.00 0.94 0.00 93 1020.0
20260902115517 19 68 4.8 16.1 0.00 0.94 0.00 93 1019.9
20260902115017 20 135 1.6 8.0 0.00 0.94 0.00 93 1019.8
20260902114517 20 68 4.8 12.9 0.00 0.94 0.00 93 1019.9
20260902114017 20 90 4.8 12.9 0.00 0.94 0.00 93 1019.8
20260902113517 20 90 4.8 11.3 0.00 0.94 0.00 93 1019.9
20260902113018 20 68 4.8 14.5 0.00 0.94 0.00 93 1019.9
20260902112518 20 68 3.2 9.7 0.00 0.94 0.00 93 1019.8
20260902112017 20 90 3.2 6.4 0.00 0.94 0.00 93 1019.7
20260902111537 20 90 3.2 8.0 0.00 0.94 0.00 93 1019.8
20260902111017 20 68 3.2 9.7 0.00 0.94 0.00 93 1019.8
20260902110516 20 45 3.2 14.5 0.00 0.94 0.00 93 1019.8
20260902110038 20 68 4.8 16.1 0.00 0.94 0.00 93 1019.8
20260902105516 20 68 4.8 16.1 0.00 0.94 0.00 93 1019.8
20260902105018 20 23 3.2 8.0 0.00 0.94 0.00 93 1019.8
20260902104637 20 45 1.6 11.3 0.00 0.94 0.00 93 1019.8
20260902104118 20 23 3.2 12.9 0.00 0.94 0.00 93 1019.7
20260902103517 20 68 3.2 8.0 0.00 0.94 0.00 93 1019.6
20260902103037 20 68 3.2 8.0 0.00 0.94 0.00 93 1019.5
20260902102517 20 23 3.2 6.4 0.00 0.94 0.00 93 1019.5
20260902102017 20 23 3.2 8.0 0.00 0.94 0.00 93 1019.5
20260902101517 20 68 3.2 9.7 0.00 0.94 0.00 93 1019.4
20260902101018 20 68 3.2 9.7 0.00 0.94 0.00 93 1019.4
20260902100518 20 23 3.2 11.3 0.00 0.94 0.00 93 1019.3
20260902100017 20 45 4.8 9.7 0.00 0.94 0.00 93 1019.3
20260902095517 20 23 4.8 11.3 0.00 0.94 0.00 92 1019.1
20260902095017 20 45 3.2 11.3 0.00 0.94 0.00 92 1019.1
20260902094517 20 68 3.2 8.0 0.00 0.94 0.00 92 1019.0
20260902094016 20 68 3.2 11.3 0.00 0.94 0.00 92 1019.0
20260902093537 20 68 4.8 14.5 0.00 0.94 0.00 92 1019.0
20260902093017 20 23 3.2 11.3 0.00 0.94 0.00 92 1019.1
20260902092518 20 68 3.2 8.0 0.00 0.94 0.00 92 1019.1
20260902092017 20 23 3.2 8.0 0.00 0.94 0.00 92 1019.1
20260902091517 20 45 3.2 8.0 0.00 0.94 0.00 92 1019.1
20260902091016 20 45 3.2 9.7 0.00 0.94 0.00 92 1019.1
20260902090518 20 45 3.2 9.7 0.00 0.94 0.00 92 1019.0
20260902090018 20 90 4.8 11.3 0.00 0.94 0.00 92 1018.8
20260902085516 20 68 4.8 14.5 0.00 0.94 0.00 92 1018.9
20260902085037 20 45 4.8 16.1 0.00 0.94 0.00 91 1018.9
20260902084517 20 90 3.2 12.9 0.00 0.94 0.00 91 1018.9
20260902084018 20 68 3.2 8.0 0.00 0.94 0.00 91 1018.9
20260902083517 20 68 4.8 16.1 0.00 0.94 0.00 92 1018.9
20260902083016 20 68 4.8 16.1 0.00 0.94 0.00 92 1018.9
20260902082518 20 68 3.2 11.3 0.00 0.94 0.00 92 1018.9
20260902082018 20 68 3.2 9.7 0.00 0.94 0.00 92 1018.9
20260902081516 20 68 3.2 11.3 0.00 0.94 0.00 92 1018.7
20260902081017 20 68 3.2 8.0 0.00 0.94 0.00 92 1018.7
20260902080516 20 0.0 4.8 0.00 0.94 0.00 92 1018.8
20260902080016 20 68 1.6 4.8 0.00 0.94 0.00 92 1018.6
20260902075516 20 68 3.2 9.7 0.00 0.94 0.00 92 1018.6
20260902075016 20 90 1.6 6.4 0.00 0.94 0.00 92 1018.6
20260902074516 20 23 1.6 6.4 0.00 0.94 0.00 92 1018.6
20260902074017 20 68 3.2 11.3 0.00 0.94 0.00 92 1018.6
20260902073516 20 23 3.2 6.4 0.00 0.94 0.00 92 1018.5
20260902073017 20 90 3.2 11.3 0.00 0.94 0.00 92 1018.4
20260902072517 20 68 3.2 11.3 0.00 0.94 0.00 92 1018.3
20260902072017 20 23 4.8 11.3 0.00 0.94 0.00 92 1018.4
20260902071517 20 113 1.6 8.0 0.00 0.94 0.00 92 1018.2
20260902071016 20 45 1.6 8.0 0.00 0.94 0.00 92 1018.2
20260902070539 20 113 1.6 9.7 0.00 0.94 0.00 92 1018.3
20260902070017 20 68 4.8 11.3 0.00 0.94 0.00 92 1018.1
20260902065517 20 68 3.2 12.9 0.00 0.94 0.00 92 1018.1
20260902065058 20 68 4.8 12.9 0.00 0.94 0.00 92 1018.1
20260902064517 20 68 1.6 6.4 0.00 0.94 0.00 92 1018.2
20260902064016 20 68 3.2 14.5 0.00 0.94 0.00 92 1018.2
20260902063518 20 68 3.2 12.9 0.00 0.94 0.00 92 1018.2
20260902063016 20 68 1.6 6.4 0.00 0.94 0.00 93 1018.3
20260902062516 20 68 1.6 11.3 0.00 0.94 0.00 93 1018.3
20260902062018 20 0.0 4.8 0.00 0.94 0.00 93 1018.3
20260902061516 20 23 1.6 8.0 0.00 0.94 0.00 93 1018.4
20260902061036 20 23 1.6 8.0 0.00 0.94 0.00 93 1018.5
20260902060516 20 45 3.2 9.7 0.00 0.94 0.00 93 1018.5
20260902060036 20 0.0 3.2 0.00 0.94 0.00 93 1018.4
20260902055517 20 68 4.8 12.9 0.00 0.94 0.00 93 1018.4
20260902055016 20 45 1.6 9.7 0.00 0.94 0.00 93 1018.6
20260902054536 20 113 3.2 11.3 0.00 0.94 0.00 93 1018.6
20260902054016 20 68 3.2 9.7 0.00 0.94 0.00 93 1018.7
20260902053518 20 23 4.8 11.3 0.00 0.94 0.00 93 1018.6
20260902053016 20 68 1.6 9.7 0.00 0.94 0.00 93 1018.6
20260902052517 20 135 1.6 6.4 0.00 0.94 0.00 93 1018.7
20260902052038 20 68 3.2 9.7 0.00 0.94 0.00 93 1018.6
20260902051516 20 68 3.2 9.7 0.00 0.94 0.00 94 1018.6
20260902051016 20 23 1.6 6.4 0.00 0.94 0.00 94 1018.6
20260902050536 20 68 1.6 6.4 0.00 0.94 0.00 94 1018.6
20260902050016 20 68 3.2 8.0 0.00 0.97 0.00 94 1018.6
20260902045516 20 135 1.6 6.4 0.00 0.97 0.00 94 1018.4
20260902045016 20 113 3.2 9.7 0.00 0.97 0.00 94 1018.4
20260902044516 20 113 3.2 9.7 0.00 0.97 0.00 94 1018.4
20260902044018 20 68 4.8 14.5 0.00 0.97 0.00 94 1018.3
20260902043538 20 68 4.8 12.9 0.00 0.97 0.00 94 1018.2
20260902043017 20 68 1.6 9.7 0.00 0.97 0.00 94 1018.1
20260902042516 20 68 1.6 6.4 0.00 0.97 0.00 94 1018.2
20260902042016 20 90 1.6 6.4 0.00 0.97 0.00 94 1018.1
20260902041516 20 23 3.2 8.0 0.00 0.97 0.00 94 1018.1
20260902041016 20 45 1.6 6.4 0.00 0.97 0.00 94 1018.2
20260902040516 20 45 1.6 4.8 0.00 0.97 0.00 94 1018.1
20260902040016 20 68 3.2 11.3 0.00 0.97 0.00 94 1018.2
20260902035516 21 113 3.2 12.9 0.00 0.97 0.97 94 1018.0
20260902035018 21 23 1.6 4.8 0.00 0.97 0.97 94 1017.8
20260902034517 21 68 1.6 4.8 0.00 0.97 0.97 94 1017.5
20260902034017 21 68 4.8 12.9 0.00 0.97 0.97 94 1017.4
20260902033517 21 68 6.4 14.5 0.00 0.97 0.97 94 1017.1
20260902033056 21 113 4.8 12.9 0.00 0.97 0.97 94 1017.1
20260902032516 21 90 4.8 14.5 0.00 0.97 0.97 94 1017.1
20260902032016 21 90 4.8 14.5 0.00 0.97 0.97 94 1017.1
20260902031516 21 68 4.8 12.9 0.00 0.97 0.97 94 1017.1
20260902031017 21 113 3.2 11.3 0.00 0.97 0.97 94 1017.2
20260902030536 21 90 3.2 12.9 0.00 0.97 0.97 94 1017.2
20260902030017 21 68 4.8 14.5 0.00 0.97 0.97 94 1017.2
20260902025516 21 68 4.8 16.1 0.00 0.97 0.97 94 1017.2
20260902025016 21 68 4.8 16.1 0.00 0.97 0.97 94 1017.2
20260902024518 21 68 6.4 20.9 0.00 0.97 0.97 94 1017.2
20260902024018 21 68 6.4 17.7 0.00 0.97 0.97 93 1017.2
20260902023518 21 68 4.8 16.1 0.00 0.97 0.97 93 1017.0
20260902023016 21 68 6.4 16.1 0.00 0.97 0.97 93 1017.0
20260902022518 21 68 4.8 14.5 0.00 0.97 0.97 94 1016.8
20260902022018 21 90 4.8 20.9 0.00 0.97 0.97 94 1016.8
20260902021538 21 68 8.0 20.9 0.00 0.97 0.97 93 1016.5
20260902021016 21 23 4.8 16.1 0.00 0.97 0.97 93 1016.4
20260902020516 21 68 8.0 20.9 0.00 0.97 0.97 93 1016.3
20260902020036 21 68 6.4 16.1 0.00 0.97 0.97 93 1016.4
20260902015536 21 68 8.0 17.7 0.00 0.97 0.97 93 1016.3
20260902015016 21 45 4.8 17.7 0.00 0.97 0.97 93 1016.0
20260902014518 21 68 4.8 14.5 0.00 0.97 0.97 93 1015.9
20260902014017 22 68 6.4 12.9 0.00 0.97 0.97 93 1015.6
20260902013516 22 45 3.2 14.5 0.00 0.97 0.97 93 1015.9
20260902013016 22 68 4.8 20.9 0.00 0.97 0.97 93 1015.7
20260902012517 22 45 6.4 20.9 0.00 0.97 0.97 93 1015.8
20260902012016 22 45 3.2 9.7 0.00 0.97 0.97 93 1015.5
20260902011516 22 23 6.4 19.3 0.00 0.97 0.97 93 1015.4
20260902011016 22 23 3.2 11.3 0.00 0.97 0.97 93 1015.1
20260902010516 22 68 4.8 14.5 0.00 0.97 0.97 93 1015.2
20260902010017 23 45 6.4 16.1 0.00 0.97 0.97 93 1015.2
20260902005516 23 68 3.2 12.9 0.00 0.97 0.97 93 1015.3
20260902005016 23 45 3.2 14.5 0.03 0.97 0.97 93 1015.1
20260902004516 23 68 6.4 17.7 0.03 0.97 0.97 93 1015.0
20260902004036 23 68 4.8 16.1 0.05 0.97 0.97 93 1014.9
20260902003517 23 68 3.2 14.5 0.05 0.97 0.97 93 1015.0
20260902003036 24 68 3.2 9.7 0.05 0.97 0.97 93 1014.9
20260902002556 24 90 3.2 12.9 0.08 0.97 0.97 93 1014.7
20260902002018 24 68 3.2 9.7 0.08 0.97 0.97 93 1014.8
20260902001516 24 135 3.2 6.4 0.08 0.97 0.97 93 1014.9
20260902001016 24 135 1.6 6.4 0.08 0.97 0.97 92 1014.9
20260902000516 24 0.0 4.8 0.08 0.97 0.97 92 1015.0
20260902000036 24 135 1.6 4.8 0.10 0.97 0.97 92 1014.9
20260901235536 24 113 1.6 6.4 0.10 0.97 0.97 92 1014.7
20260901235016 24 113 3.2 6.4 0.08 0.94 0.94 92 1014.8
20260901234516 24 158 1.6 4.8 0.08 0.94 0.94 92 1015.1
20260901234016 24 113 1.6 6.4 0.05 0.91 0.91 92 1014.9
20260901233516 24 135 1.6 9.7 0.05 0.91 0.91 92 1015.1
20260901233016 24 113 3.2 12.9 0.13 0.91 0.91 92 1014.6
20260901232536 24 113 6.4 12.9 0.30 0.89 0.89 91 1014.2
20260901232016 24 113 4.8 11.3 0.66 0.89 0.89 91 1014.7
20260901231516 24 135 4.8 11.3 0.74 0.89 0.89 91 1014.6
20260901231016 24 113 4.8 14.5 0.76 0.89 0.89 91 1014.5
20260901230517 24 113 6.4 12.9 0.76 0.89 0.89 91 1014.4
20260901230016 25 113 6.4 12.9 0.74 0.86 0.86 90 1014.3
20260901225516 25 113 4.8 12.9 0.74 0.86 0.86 90 1014.3
20260901225016 25 113 3.2 6.4 0.74 0.86 0.86 90 1014.3
20260901224516 25 135 1.6 8.0 0.74 0.86 0.86 89 1014.5
20260901224016 25 270 3.2 6.4 0.74 0.86 0.86 88 1014.5
20260901223517 25 225 3.2 8.0 0.74 0.86 0.86 88 1014.2
20260901223037 25 45 1.6 6.4 0.66 0.79 0.79 87 1014.2
20260901222538 26 90 1.6 6.4 0.46 0.58 0.58 86 1014.2
20260901222016 26 135 3.2 9.7 0.10 0.23 0.23 86 1014.4
20260901221516 26 113 6.4 17.7 0.03 0.15 0.15 85 1014.0
20260901221016 26 113 9.7 17.7 0.00 0.13 0.13 84 1013.7
20260901220516 26 113 9.7 16.1 0.00 0.13 0.13 83 1013.7
20260901220016 26 135 6.4 14.5 0.00 0.13 0.13 83 1013.7
20260901215516 26 135 8.0 16.1 0.00 0.13 0.13 82 1013.9
20260901215016 26 113 6.4 14.5 0.00 0.13 0.13 82 1013.9
20260901214516 27 113 8.0 16.1 0.00 0.13 0.13 81 1013.9
20260901214036 27 135 8.0 16.1 0.00 0.13 0.13 80 1013.9
20260901213517 27 135 6.4 14.5 0.00 0.13 0.13 79 1013.9
20260901213016 27 135 6.4 14.5 0.00 0.13 0.13 78 1013.8
20260901212516 28 113 6.4 14.5 0.00 0.13 0.13 78 1013.8
20260901212037 28 113 6.4 12.9 0.00 0.13 0.13 78 1013.9
20260901211516 28 113 6.4 12.9 0.00 0.13 0.13 78 1014.0
20260901211016 28 113 4.8 11.3 0.00 0.13 0.13 78 1013.9
20260901210517 28 135 6.4 12.9 0.00 0.13 0.13 77 1013.8
20260901210016 28 158 3.2 8.0 0.00 0.13 0.13 78 1013.8
20260901205516 28 135 3.2 9.7 0.00 0.13 0.13 78 1013.8
20260901205016 28 135 6.4 11.3 0.00 0.13 0.13 77 1013.8
20260901204516 28 135 4.8 11.3 0.00 0.13 0.13 77 1013.8
20260901204036 28 135 4.8 9.7 0.00 0.13 0.13 76 1013.8
20260901203537 29 135 3.2 11.3 0.00 0.13 0.13 76 1013.9
20260901203017 29 113 3.2 12.9 0.00 0.13 0.13 75 1014.0
20260901202516 29 135 3.2 9.7 0.00 0.13 0.13 75 1013.9
20260901202017 30 135 1.6 9.7 0.00 0.13 0.13 75 1013.9
20260901201516 30 0.0 4.8 0.00 0.13 0.13 75 1013.8
20260901201016 29 0.0 3.2 0.00 0.13 0.13 75 1013.9
20260901200536 29 0.0 3.2 0.00 0.13 0.13 75 1013.9
20260901200016 30 158 1.6 8.0 0.00 0.13 0.13 75 1013.8
20260901195516 30 158 1.6 6.4 0.00 0.13 0.13 75 1013.8
20260901195016 30 158 1.6 8.0 0.00 0.13 0.13 75 1013.7
20260901194516 30 135 1.6 4.8 0.00 0.13 0.13 75 1013.8
20260901194016 30 0.0 4.8 0.00 0.13 0.13 76 1013.9
20260901193516 29 135 1.6 6.4 0.00 0.13 0.13 76 1014.0
20260901193016 29 113 1.6 6.4 0.00 0.13 0.13 77 1014.0
20260901192516 29 135 3.2 8.0 0.00 0.13 0.13 78 1014.0
20260901192016 29 135 3.2 9.7 0.00 0.13 0.13 79 1014.0
20260901191516 28 293 1.6 9.7 0.00 0.13 0.13 80 1014.0
20260901191036 28 0.0 3.2 0.00 0.13 0.13 81 1014.1
20260901190516 28 225 1.6 4.8 0.00 0.13 0.13 81 1014.1
20260901190016 28 0.0 1.6 0.00 0.13 0.13 82 1014.1
20260901185516 27 248 3.2 8.0 0.00 0.13 0.13 81 1014.2
20260901185017 27 225 1.6 6.4 0.00 0.13 0.13 82 1014.2
20260901184516 27 225 1.6 6.4 0.00 0.13 0.13 82 1014.2
20260901184036 27 0.0 3.2 0.00 0.13 0.13 82 1014.3
20260901183517 27 0.0 3.2 0.00 0.13 0.13 82 1014.3
20260901183016 27 248 1.6 6.4 0.00 0.13 0.13 82 1014.3
20260901182516 27 135 1.6 8.0 0.00 0.13 0.13 83 1014.2
20260901182017 27 225 1.6 11.3 0.00 0.13 0.13 84 1014.2
20260901181536 27 248 3.2 11.3 0.00 0.13 0.13 85 1014.2
20260901181016 27 225 6.4 16.1 0.00 0.13 0.13 86 1014.1
20260901180516 27 225 8.0 17.7 0.00 0.13 0.13 86 1014.1
20260901180016 27 203 3.2 11.3 0.00 0.13 0.13 87 1014.1
20260901175537 26 225 1.6 8.0 0.00 0.13 0.13 88 1014.1
20260901175017 26 248 3.2 14.5 0.00 0.13 0.13 90 1014.1
20260901174557 26 248 3.2 11.3 0.00 0.13 0.13 90 1013.9
20260901174017 26 225 4.8 14.5 0.00 0.13 0.13 91 1014.1
20260901173536 25 0.0 3.2 0.00 0.13 0.13 92 1014.5
20260901173016 25 0.0 4.8 0.00 0.13 0.13 91 1014.7
20260901172516 25 0.0 3.2 0.00 0.13 0.13 92 1014.9
20260901172017 25 0.0 3.2 0.00 0.13 0.13 91 1015.0
20260901171517 25 0.0 3.2 0.00 0.13 0.13 91 1014.9
20260901171016 25 225 1.6 9.7 0.00 0.13 0.13 91 1015.0
20260901170537 25 0.0 4.8 0.03 0.13 0.13 91 1015.0
20260901170036 25 0.0 8.0 0.03 0.13 0.13 91 1014.7
20260901165536 25 0.0 0.0 0.05 0.13 0.13 91 1014.9
20260901165016 25 0.0 3.2 0.05 0.13 0.13 91 1014.9
20260901164516 25 225 1.6 4.8 0.05 0.13 0.13 91 1015.0
20260901164016 25 225 1.6 6.4 0.05 0.13 0.13 90 1015.2
20260901163516 25 225 4.8 8.0 0.05 0.13 0.13 90 1015.2
20260901163016 25 225 3.2 9.7 0.08 0.13 0.13 90 1015.4
20260901162516 25 0.0 3.2 0.08 0.13 0.13 90 1015.5
20260901162016 25 0.0 1.6 0.08 0.13 0.13 90 1015.4
20260901161536 25 0.0 1.6 0.08 0.13 0.13 90 1015.6
20260901161016 25 0.0 0.0 0.08 0.13 0.13 90 1015.8
20260901160535 25 0.0 1.6 0.05 0.10 0.10 90 1015.9
20260901160055 25 0.0 1.6 0.05 0.10 0.10 90 1015.9
20260901155517 25 0.0 1.6 0.03 0.08 0.08 90 1016.1
20260901155016 25 0.0 3.2 0.03 0.08 0.08 90 1016.1
20260901154517 25 0.0 3.2 0.03 0.08 0.08 90 1016.3
20260901154016 25 293 1.6 4.8 0.03 0.08 0.08 90 1016.4
20260901153516 25 293 1.6 3.2 0.03 0.08 0.08 90 1016.3
20260901153016 25 293 1.6 3.2 0.00 0.05 0.05 90 1016.4
20260901152517 25 0.0 3.2 0.00 0.05 0.05 90 1016.1
20260901152016 25 180 1.6 3.2 0.00 0.05 0.05 90 1016.2
20260901151535 25 0.0 3.2 0.00 0.05 0.05 90 1016.1
20260901151159 25 0.0 3.2 0.00 0.05 0.05 90 1016.2
20260901150517 25 0.0 3.2 0.00 0.05 0.05 90 1016.4
20260901150036 25 0.0 1.6 0.00 0.05 0.05 91 1016.3
20260901145517 25 0.0 3.2 0.00 0.05 0.05 91 1016.2
20260901145015 25 180 1.6 4.8 0.00 0.05 0.05 91 1016.1
20260901144515 25 0.0 3.2 0.00 0.05 0.05 91 1016.2
20260901144016 25 0.0 3.2 0.00 0.05 0.05 91 1016.2
20260901143515 25 0.0 4.8 0.00 0.05 0.05 91 1016.2
20260901143015 25 0.0 1.6 0.00 0.05 0.05 92 1016.1
20260901142516 25 270 1.6 3.2 0.00 0.05 0.05 92 1016.1
20260901142017 24 0.0 0.0 0.00 0.05 0.05 92 1015.9
20260901141515 24 0.0 1.6 0.00 0.05 0.05 92 1015.9
20260901141015 24 135 1.6 6.4 0.00 0.05 0.05 92 1015.7
20260901140536 24 135 1.6 4.8 0.00 0.05 0.05 92 1015.7
20260901140016 24 225 1.6 4.8 0.00 0.05 0.05 92 1015.7
20260901135535 24 0.0 3.2 0.03 0.05 0.05 92 1015.9
20260901135015 24 248 1.6 4.8 0.03 0.05 0.05 92 1016.0
20260901134515 24 225 1.6 6.4 0.03 0.05 0.05 93 1015.9
20260901134015 24 203 1.6 6.4 0.03 0.05 0.05 93 1015.9
20260901133516 23 270 1.6 6.4 0.03 0.05 0.05 93 1015.8
20260901133015 24 225 1.6 6.4 0.03 0.05 0.05 93 1015.8
20260901132516 23 225 1.6 6.4 0.03 0.05 0.05 93 1015.9
20260901132017 23 225 4.8 9.7 0.03 0.05 0.05 93 1015.9
20260901131515 23 248 4.8 11.3 0.03 0.05 0.05 93 1016.0
20260901131037 23 203 1.6 6.4 0.03 0.05 0.05 93 1016.0
20260901130515 23 225 4.8 14.5 0.03 0.05 0.05 93 1015.9
20260901130035 23 203 4.8 8.0 0.03 0.05 0.05 93 1015.9
20260901125517 23 293 1.6 6.4 0.00 0.03 0.03 93 1016.0
20260901125015 23 0.0 3.2 0.00 0.03 0.03 93 1015.9
20260901124537 23 248 1.6 6.4 0.00 0.03 0.03 93 1016.0
20260901124015 23 248 1.6 8.0 0.00 0.03 0.03 93 1016.0
20260901123517 23 0.0 3.2 0.00 0.03 0.03 93 1015.9